Location: Hohenfelde
(53.8441°N, 9.6220°E)
Time: 12:40:49
(UTC+00:00)

Cosmos 614 Rocket - Pass Details

Date: 14 July 2020
Orbit: 732 x 764 km, 74.1° (Epoch: 12 August)

Event Time Altitude Azimuth Distance (km) Brightness Sun altitude
Exits shadow 00:43:19 17° 180° (S) 1,815 5.4 -12.8°
Maximum altitude 00:47:04 52° 109° (ESE) 920 4.4 -12.6°
Drops below altitude 10° 00:52:03 10° 34° (NNE) 2,275 7.8 -12.3°
Sets 00:54:29 0° 29° (NNE) 3,209 9.2 -12.2°
